Location: Liberec
(50.7830°N, 15.0500°E)
Time: 03:25:04
(UTC+01:00)

ISS - Pass Details

Date: 05 October 2020
Orbit: 417 x 420 km, 51.6° (Epoch: 25 October)

Event Time Altitude Azimuth Distance (km) Brightness Sun altitude
Rises 19:32:33 0° 285° (WNW) 2,369 2.1 -11.0°
Reaches altitude 10° 19:34:51 10° 272° (W) 1,502 0.6 -11.4°
Maximum altitude 19:37:43 26° 214° (SW) 867 -1.9 -11.8°
Drops below altitude 10° 19:40:34 10° 156° (SSE) 1,496 -1.3 -12.3°
Enters shadow 19:41:03 - 152° (SSE) 1,663 -1.1 -12.3°
